星链-30459 (STARLINK-30459 )

导读

STARLINK-30459是美国SpaceX星链(Starlink)互联网星座中的卫星,于2023年9月24日发射入轨。星链项目旨在构建全球低轨卫星互联网,为偏远及基础设施薄弱地区提供高速低延迟宽带服务。该卫星运行于近地轨道,采用平板设计与霍尔推进技术,具备自主避撞能力,服役结束后会主动离轨再入大气层焚毁,进一步拓展了星链网络的全球覆盖能力。

基本信息
目录编号:
57927
目录名称:
STARLINK-30459
国际标识:
2023-147Q
轨道中心:
EARTH
卫星名称:
星链-30459
卫星全名:
星链-30459 (STARLINK-30459 )
卫星状态:
已陨落 最后检测时间 2026-01-15
发射日期:
2023-09-24 UTC
国别 :
美国 (US)
星等 :
--
轨道信息
数据来源 国际轨道数据
星历时间: 2026-01-15T21:28:17+0800
轨道信息已过期153天
半长轴: 6559.476km
偏心率: 0.0008223
轨道倾角: 42.972°
近地点辐角 123.312°
升交点赤经 68.023°
平近点角 236.856°
近地点: 175.945km
远地点: 186.733km
周期: 88.118分钟
每日圈数: 16.341771
详细信息
固有亮度:
5
最大亮度:
0.3
卫星平台:
Starlink v2.0 mini
覆盖范围:
全球
运营商:
太空探索技术公司
运营商所在国:
美国
制造商(研发单位):
太空探索技术公司
制造商所在国:
美国
使用方式:
暂无
卫星简介
星链(Starlink)计划是由太空探索技术公司(SpaceX)提出的一个巨型低轨卫星互联网星座项目,计划在2019年至2024年间在太空搭建由约1.2万颗卫星组成的“星链”网络,其中1584颗将部署在地球上空550千米处的近地轨道,并从2020年开始工作。该卫星仍在工作。